Location: Olsztyn
(53.7767°N, 20.4765°E)
Time: 18:52:57
(UTC+02:00)

Envisat - Pass Details

Date: 25 February 2024
Orbit: 762 x 764 km, 98.3° (Epoch: 20 April)

Event Time Altitude Azimuth Distance (km) Brightness Sun altitude
Rises 02:46:45 0° 18° (NNE) 3,246 6.9 -33.4°
Reaches altitude 10° 02:49:09 10° 24° (NNE) 2,315 6.1 -33.2°
Enters shadow 02:53:13 44° 68° (ENE) 1,063 4.0 -32.7°
